Regional Weather Roundup
Issued by NWS

Home | Current Version | Previous Version | Graphics & Text | Print | Product List | Glossary Off
Versions: 1 2 3 4 5 6 7 8 9 10 11 12 13 14 15 16 17 18 19 20 21 22 23 24 25 26 27 28 29 30 31 32 33 34 35 36 37 38 39 40 41 42 43 44 45 46 47 48 49 50

000
ASUS43 KDTX 271110
RWRMI
MICHIGAN HOURLY REGIONAL WEATHER ROUNDUP
NATIONAL WEATHER SERVICE DETROIT/PONTIAC MI
700 AM EDT SAT AUG 27 2016

NOTE: "FAIR" INDICATES FEW OR NO CLOUDS BELOW 12,000 FEET WITH NO
SIGNIFICANT WEATHER AND/OR OBSTRUCTION TO VISIBILITY.

MIZ047>049-052>055-059>063-066>070-074>076-081>083-271200-
SOUTHEAST LOWER MICHIGAN

CITY           SKY/WX    TMP DP  RH WIND       PRES   REMARKS
ADRIAN         CLOUDY    68  66  93 E5        30.14S
ALMA           LGT RAIN  62  62  99 W7        30.15R
ANN ARBOR      PTCLDY    67  65  93 CALM      30.14S
BAD AXE        CLOUDY    62  62 100 SE3       30.17S
CARO           CLOUDY    62  61  97 CALM      30.15S
DETROIT CITY   PTCLDY    72  70  93 E5        30.16R
DETROIT        CLOUDY    72  69  90 NE5       30.15R
FLINT          CLOUDY    69  63  81 E3        30.16R
GROSSE ILE     CLOUDY    74  67  79 SE5       30.14R
HILLSDALE      PTCLDY    67  61  80 E5        30.14R
HOWELL         CLOUDY    66  64  94 E3        30.15S

CITY           SKY/WX    TMP DP  RH WIND       PRES   REMARKS
JACKSON        CLOUDY    66  65  96 E5        30.14S
LAMBERTVILLE   PTCLDY    68  63  83 CALM      30.14S
LANSING        MOCLDY    66  60  81 E3        30.14S
LAPEER         CLOUDY    63  62  97 CALM      30.17R
MASON          CLOUDY    66  62  87 SE3       30.14S
MONROE         CLOUDY    68  67  97 E6        30.14R
MT. CLEMENS    CLOUDY    70  69  95 E7        30.15R
PONTIAC        CLOUDY    71  62  73 E3        30.15S
PORT HURON     PTCLDY    66  66 100 SE3       30.17S
TRI CITIES     CLOUDY    63  62  97 E3        30.14F
MIDLAND        CLOUDY    62  61  98 CALM      30.14S
TROY           PTCLDY    72  65  79 E3        30.17S
SAGINAW HB     CLOUDY    63  61  94 SE3       30.14S
$$
MIZ043>046-050>051-056>058-064>065-071>073-077>080-271200-
SOUTHWEST LOWER MICHIGAN

CITY           SKY/WX    TMP DP  RH WIND       PRES   REMARKS
BATTLE CREEK   CLOUDY    67  62  84 E7        30.12F
BENTON HARBOR  LGT RAIN  67  63  87 NE3       30.08R
BIG RAPIDS     LGT RAIN  62  60  95 CALM      30.15R
COLDWATER      CLOUDY    68  64  88 E5        30.11S
FREMONT        DRIZZLE   63  60  91 E6        30.12S
HOLLAND        CLOUDY    65  61  87 E5        30.11S
GRAND RAPIDS   CLOUDY    64  59  83 E6        30.12S
IONIA          FAIR      62  59  91 E5        30.13R
KALAMAZOO      MOCLDY    68  61  78 CALM      30.11F
LUDINGTON      HVY RAIN  59  58  97 N3        30.14R
MARSHALL       CLOUDY    66  64  94 CALM      30.12S
MOUNT PLEASANT LGT RAIN  62  60  96 CALM      30.15R
MUSKEGON       CLOUDY    65  59  81 E8        30.11S
SOUTH HAVEN    LGT RAIN  67  64  89 CALM      30.10R
$$
MIZ016>042-271200-
NORTHERN LOWER MICHIGAN

CITY           SKY/WX    TMP DP  RH WIND       PRES   REMARKS
ALPENA         CLOUDY    59  56  89 CALM      30.19R
BEAVER ISLAND  RAIN      64  63  97 SE3       30.17R
BELLAIRE       CLOUDY    60  58  95 CALM      30.16S
CADILLAC       CLOUDY    60  57  89 CALM      30.17R
CHARLEVOIX     CLOUDY    61  59  94 SE3       30.19S
FRANKFORT      RAIN      62  58  86 CALM      30.16R
GAYLORD        CLOUDY    62  56  80 CALM      30.18S
GRAYLING       CLOUDY    57  56  95 CALM      30.17S
HARBOR SPRINGS CLOUDY    61  58  91 NE5       30.17S
HOUGHTON LAKE  CLOUDY    60  57  89 E5        30.17F
MANISTEE       LGT RAIN  59  58  96 CALM      30.16R
OSCODA         CLOUDY    68  64  86 E5        30.17R
PELLSTON       LGT RAIN  58  55  90 CALM      30.17F
ROGERS CITY    PTCLDY    59  57  93 CALM      30.18S
TRAVERSE CITY  CLOUDY    63  58  83 SW3       30.16R
$$
MIZ007>008-015-271200-
EASTERN UPPER MICHIGAN

CITY           SKY/WX    TMP DP  RH WIND       PRES   REMARKS
KINROSS        CLOUDY    58  55  90 CALM      30.20R
MACKINAC ISLAN CLOUDY    60  56  88 E3        30.18R
NEWBERRY       CLOUDY    55  54  97 CALM      30.18R
S. S. MARIE    PTCLDY    57  54  89 CALM      30.19R
$$
MIZ004>006-011>014-085-271200-
CENTRAL UPPER MICHIGAN

CITY           SKY/WX    TMP DP  RH WIND       PRES   REMARKS
MANISTIQUE     RAIN      59  57  93 CALM      30.16R
ESCANABA       LGT RAIN  64  63  96 NE5       30.15S
MENOMINEE      LGT RAIN N/A N/A N/A CALM      30.15F
SAWYER-GWINN   CLEAR     52  50  93 CALM      30.17S
$$
MIZ001>003-009>011-084-271200-
WESTERN UPPER MICHIGAN

CITY           SKY/WX    TMP DP  RH WIND       PRES   REMARKS
IRON MOUNTAIN  CLOUDY    57  54  89 CALM      30.15S
HOUGHTON       CLOUDY    51  49  92 CALM      30.14F
IRONWOOD       CLOUDY    52  51  97 CALM      30.14S
$$

ABBREVIATIONS USED IN REMARKS
   TC - TEMPERATURE IN CELSIUS
  WCI - WIND CHILL INDEX
   HX - HEAT INDEX
  VSB - VISIBILITY




USA.gov is the U.S. government's official web portal to all federal, state and local government web resources and services.